Change the Weather History Date:

Monday, April 29, 2013

  Actual Average Record
Temperature  
Mean Temperature 62 °F 62 °F  
Max Temperature 72 °F 73 °F 91 °F (1894)
Min Temperature 52 °F 50 °F 31 °F (1907)
Degree Days  
Heating Degree Days 3 5  
Month to date heating degree days 245 246  
Since 1 July heating degree days 3817 3964  
Cooling Degree Days 0 2  
Month to date cooling degree days 53 29  
Year to date cooling degree days 53 34  
Growing Degree Days 13 (Base 50)    
Moisture  
Dew Point 52 °F    
Average Humidity 68    
Maximum Humidity 86    
Minimum Humidity 49    
Precipitation  
Precipitation 0.00 in 0.16 in 2.40 in (1912)
Month to date precipitation 6.70 4.18  
Year to date precipitation 19.60 16.16  
Snow  
Snow 0.00 in 0.00 in 0.00 in ()
Month to date snowfall 0.0 0.2  
Since 1 July snowfall 3.8 9.1  
Snow Depth 0.00 in    
Sea Level Pressure  
Sea Level Pressure 29.98 in    
Wind  
Wind Speed 2 mph (SSW)    
Max Wind Speed 14 mph    
Max Gust Speed 32 mph    
Visibility 9 miles    
Events      
T = Trace of Precipitation, MM = Missing Value Source: NWS Daily Summary

Daily Weather History Graph

Daily Weather History Graph

Search for Another Location

Airport or City:

Trip Planner

Search our weather history database for the weather conditions in past years. The results will help you decide how hot, cold, wet, or windy it might be!

Date:

Astronomy

Apr. 29, 2013 Rise Set
Actual Time 5:53 AM CDT 7:33 PM CDT
Civil Twilight 5:25 AM CDT 8:00 PM CDT
Nautical Twilight 4:52 AM CDT 8:34 PM CDT
Astronomical Twilight 4:16 AM CDT 9:10 PM CDT
Moon 11:55 PM CDT (4/29) 9:15 AM CDT (4/29)
Length of Visible Light 14h 35m
Length of Day
13h 39m
Waning Gibbous, 80% of the Moon is Illuminated
Apr 29
Waning Gibbous
May 2
Last Quarter
May 9
New
May 17
First Quarter
May 24
Full

Hourly Weather History & Observations

Time (CDT) Temp. Dew Point Humidity Pressure Visibility Wind Dir Wind Speed Gust Speed Precip Events Conditions
12:53 AM 57.9 °F 52.0 °F 81% 29.98 in 9.0 mi Calm Calm - N/A   Overcast
1:53 AM 57.0 °F 52.0 °F 83% 29.96 in 8.0 mi Calm Calm - N/A   Overcast
2:53 AM 57.0 °F 52.0 °F 83% 29.97 in 8.0 mi Calm Calm - N/A   Overcast
3:53 AM 57.0 °F 52.0 °F 83% 29.97 in 8.0 mi Calm Calm - N/A   Overcast
4:53 AM 55.9 °F 52.0 °F 87% 29.98 in 6.0 mi South 5.8 mph - N/A   Overcast
5:53 AM 57.0 °F 52.0 °F 83% 29.99 in 6.0 mi Calm Calm - N/A   Haze
6:53 AM 57.0 °F 53.1 °F 87% 30.01 in 5.0 mi Calm Calm - N/A   Overcast
7:53 AM 57.9 °F 53.1 °F 84% 30.03 in 5.0 mi Calm Calm - N/A   Haze
8:53 AM 61.0 °F 54.0 °F 78% 30.03 in 6.0 mi SSW 3.5 mph - N/A   Haze
9:53 AM 62.1 °F 53.1 °F 72% 30.04 in 10.0 mi SW 3.5 mph - N/A   Overcast
10:53 AM 64.0 °F 53.1 °F 67% 30.04 in 10.0 mi Calm Calm - N/A   Overcast
11:53 AM 66.9 °F 51.1 °F 57% 30.04 in 10.0 mi Calm Calm - N/A   Overcast
12:53 PM 68.0 °F 51.1 °F 55% 30.01 in 10.0 mi SW 8.1 mph - N/A   Overcast
1:53 PM 69.1 °F 52.0 °F 54% 30.00 in 10.0 mi South 8.1 mph - N/A   Overcast
2:53 PM 69.1 °F 52.0 °F 54% 29.98 in 10.0 mi Calm Calm - N/A   Mostly Cloudy
3:53 PM 70.0 °F 52.0 °F 53% 29.96 in 10.0 mi South 5.8 mph - N/A   Overcast
4:53 PM 71.1 °F 52.0 °F 51% 29.95 in 10.0 mi Calm Calm - N/A   Scattered Clouds
5:53 PM 71.1 °F 53.1 °F 53% 29.94 in 10.0 mi Variable 3.5 mph - N/A   Clear
6:53 PM 70.0 °F 54.0 °F 57% 29.93 in 10.0 mi Calm Calm - N/A   Clear
7:53 PM 63.0 °F 52.0 °F 67% 29.94 in 10.0 mi Calm Calm - N/A   Clear
8:53 PM 59.0 °F 52.0 °F 78% 29.95 in 10.0 mi Calm Calm - N/A   Clear
9:53 PM 57.0 °F 52.0 °F 83% 29.97 in 10.0 mi Calm Calm - N/A   Clear
10:53 PM 57.9 °F 52.0 °F 81% 29.96 in 10.0 mi Calm Calm - N/A   Clear
11:53 PM 55.9 °F 51.1 °F 84% 29.96 in 10.0 mi Calm Calm - N/A   Clear